This demonstration page uses our WeatherBlox Daily Observations layout. Learn more.

Left ArrowRight Arrow

39.51506, -84.39828

Hourly Observations for February 6, 2018

Temp ( °F °C ) Dew Point ( °F °C ) Humidity (%) Winds ( mph kmh ) Pressure ( in mb ) Visibility ( mi km ) Precip ( " mm )
12:15 am 00:15 Cloudy 27 -3 19 -7.5 71 71 Calm 30.21 1023 10 16 0.00 0.00
12:35 am 00:35 Cloudy 27 -2.9 19 -7.5 71 71 Calm 30.21 1023 10 16 0.00 0.00
12:55 am 00:55 Cloudy with Light Snow 27 -3 19 -7.5 71 71 Calm 30.21 1023 10 16 0.00 0.00
1:15 am 01:15 Cloudy 26 -3.1 19 -7.3 73 73 Calm 30.24 1024 10 16 0.00 0.00
1:35 am 01:35 Cloudy with Light Snow 26 -3.1 19 -7 75 75 Calm 30.21 1023 10 16 0.00 0.00
1:55 am 01:55 Cloudy with Light Snow 26 -3.3 20 -6.8 77 77 Calm 30.24 1024 10 16 0.00 0.00
2:15 am 02:15 Cloudy with Light Snow 26 -3.4 20 -6.4 80 80 Calm 30.24 1024 5 8 0.00 0.00
2:35 am 02:35 Cloudy with Light Snow 25 -3.7 21 -5.9 85 85 Calm 30.24 1024 3 5 0.00 0.00
2:55 am 02:55 Cloudy with Light Snow 25 -3.9 22 -5.8 87 87 Calm 30.24 1024 7 11 0.00 0.00
3:15 am 03:15 Cloudy 25 -3.8 22 -5.7 87 87 Calm 30.24 1024 10 16 0.00 0.00
3:35 am 03:35 Cloudy 25 -3.8 22 -5.7 87 87 Calm 30.24 1024 10 16 0.00 0.00
3:55 am 03:55 Cloudy 25 -3.7 22 -5.7 86 86 Calm 30.27 1025 10 16 0.00 0.00
4:15 am 04:15 Cloudy 26 -3.6 22 -5.8 85 85 Calm 30.27 1025 10 16 0.00 0.00
4:35 am 04:35 Cloudy 26 -3.6 22 -5.6 86 86 Calm 30.27 1025 10 16 0.00 0.00
4:55 am 04:55 Cloudy 26 -3.6 22 -5.6 86 86 Calm 30.27 1025 10 16 0.00 0.00
5:15 am 05:15 Cloudy 26 -3.6 22 -5.8 85 85 Calm 30.27 1025 10 16 0.00 0.00
5:35 am 05:35 Cloudy 26 -3.5 22 -5.5 86 86 Calm 30.30 1026 10 16 0.00 0.00
5:55 am 05:55 Cloudy 26 -3.5 22 -5.6 86 86 Calm 30.30 1026 10 16 0.00 0.00
6:15 am 06:15 Cloudy 26 -3.4 22 -5.6 85 85 Calm 30.30 1026 10 16 0.00 0.00
6:35 am 06:35 Cloudy 26 -3.5 22 -5.6 86 86 WSW 3 6 30.33 1027 10 16 0.00 0.00
6:55 am 06:55 Cloudy 26 -3.5 22 -5.5 86 86 Calm 30.33 1027 10 16 0.00 0.00
7:15 am 07:15 Cloudy 26 -3.4 22 -5.3 87 87 W 3 6 30.36 1028 10 16 0.00 0.00
7:35 am 07:35 Cloudy 26 -3.4 22 -5.3 87 87 Calm 30.33 1027 10 16 0.00 0.00
7:55 am 07:55 Cloudy 26 -3.2 22 -5.8 82 82 W 3 6 30.36 1028 10 16 0.00 0.00
8:15 am 08:15 Cloudy 26 -3.2 22 -5.7 83 83 Calm 30.36 1028 10 16 0.00 0.00
8:35 am 08:35 Cloudy 27 -3 21 -6.2 79 79 NW 5 7 30.39 1029 10 16 0.00 0.00
8:55 am 08:55 Cloudy 27 -3 20 -6.8 75 75 NNW 7 11 30.39 1029 10 16 0.00 0.00
9:15 am 09:15 Cloudy 26 -3.1 19 -7.4 73 73 N 8 13 30.42 1030 10 16 0.00 0.00
9:35 am 09:35 Cloudy 26 -3.1 19 -7.4 73 73 NNW 13 20 30.42 1030 10 16 0.00 0.00
9:55 am 09:55 Cloudy 27 -3 19 -7.4 72 72 NNE 7 11 30.42 1030 10 16 0.00 0.00
10:15 am 10:15 Cloudy 27 -2.7 19 -7.5 70 70 N 5 7 30.45 1031 10 16 0.00 0.00
10:35 am 10:35 Cloudy 27 -2.9 18 -8 68 68 N 6 9 30.45 1031 10 16 0.00 0.00
10:55 am 10:55 Cloudy with Light Snow 26 -3.3 20 -6.8 77 77 NNE 8 13 30.45 1031 7 11 0.00 0.00
11:15 am 11:15 Cloudy 26 -3.2 20 -6.7 77 77 NNE 9 15 30.45 1031 10 16 0.00 0.00
11:35 am 11:35 Cloudy 26 -3.1 20 -6.6 77 77 NNE 5 7 30.45 1031 10 16 0.00 0.00
11:55 am 11:55 Cloudy 27 -3 19 -7 74 74 N 5 7 30.48 1032 10 16 0.00 0.00
12:15 pm 12:15 Cloudy 27 -2.9 19 -7.2 73 73 NE 5 7 30.45 1031 10 16 0.00 0.00
12:35 pm 12:35 Cloudy 28 -2.4 20 -6.8 72 72 ENE 6 9 30.45 1031 10 16 0.00 0.00
12:55 pm 12:55 Cloudy 28 -2.1 20 -6.6 72 72 NNE 6 9 30.42 1030 10 16 0.00 0.00
1:15 pm 13:15 Cloudy 29 -1.9 20 -6.6 71 71 NE 5 7 30.42 1030 10 16 0.00 0.00
1:35 pm 13:35 Cloudy 28 -2 20 -6.9 69 69 E 3 6 30.42 1030 10 16 0.00 0.00
1:55 pm 13:55 Cloudy 28 -2 19 -7 69 69 Calm 30.42 1030 10 16 0.00 0.00
2:10 pm 14:10 Cloudy 28 -2.2 19 -7.5 67 67 Calm 30.42 1030 10 16 0.00 0.00
2:35 pm 14:35 Cloudy 28 -2 19 -7.4 67 67 Calm 30.42 1030 10 16 0.00 0.00
2:55 pm 14:55 Cloudy 29 -1.8 19 -7.3 66 66 E 3 6 30.42 1030 10 16 0.00 0.00
3:15 pm 15:15 Cloudy 29 -1.8 19 -7.4 66 66 ENE 3 6 30.42 1030 10 16 0.00 0.00
3:35 pm 15:35 Cloudy 29 -1.7 19 -7.3 66 66 E 3 6 30.42 1030 10 16 0.00 0.00
3:55 pm 15:55 Cloudy 29 -1.6 19 -7.3 65 65 NNE 3 6 30.42 1030 10 16 0.00 0.00
4:15 pm 16:15 Cloudy 29 -1.8 18 -7.7 64 64 Calm 30.42 1030 10 16 0.00 0.00
4:35 pm 16:35 Cloudy 29 -1.7 19 -7.3 66 66 Calm 30.42 1030 10 16 0.00 0.00
4:55 pm 16:55 Partly Cloudy 29 -1.6 19 -7.3 65 65 Calm 30.42 1030 10 16 0.00 0.00
5:15 pm 17:15 Partly Cloudy 29 -1.7 19 -7 67 67 ENE 6 9 30.42 1030 10 16 0.00 0.00
5:35 pm 17:35 Partly Cloudy 29 -1.8 19 -7.2 67 67 NE 6 9 30.42 1030 10 16 0.00 0.00
5:55 pm 17:55 Cloudy 28 -2 19 -7 69 69 NNE 6 9 30.42 1030 10 16 0.00 0.00
6:15 pm 18:15 Mostly Cloudy 28 -2.3 19 -7 70 70 NE 5 7 30.42 1030 10 16 0.00 0.00
6:35 pm 18:35 Cloudy 28 -2.2 20 -6.8 71 71 NNE 5 7 30.42 1030 10 16 0.00 0.00
6:55 pm 18:55 Cloudy 28 -2.1 20 -6.7 71 71 ENE 5 7 30.42 1030 10 16 0.00 0.00
7:15 pm 19:15 Mostly Cloudy 28 -2.4 20 -6.9 72 72 NNE 6 9 30.42 1030 10 16 0.00 0.00
7:35 pm 19:35 Partly Cloudy 27 -2.9 20 -6.9 74 74 NE 5 7 30.42 1030 10 16 0.00 0.00
7:55 pm 19:55 Partly Cloudy 27 -3 20 -6.7 76 76 ENE 6 9 30.42 1030 10 16 0.00 0.00
8:15 pm 20:15 Partly Cloudy 26 -3.4 20 -6.8 78 78 ENE 5 7 30.39 1029 10 16 0.00 0.00
8:35 pm 20:35 Partly Cloudy 25 -4 19 -7.1 79 79 E 5 7 30.39 1029 10 16 0.00 0.00
8:55 pm 20:55 Mostly Cloudy 25 -3.7 20 -6.7 80 80 E 6 9 30.39 1029 10 16 0.00 0.00
9:15 pm 21:15 Cloudy 26 -3.5 21 -6.1 82 82 ENE 3 6 30.36 1028 10 16 0.00 0.00
9:35 pm 21:35 Cloudy 26 -3.2 21 -6.2 80 80 ENE 6 9 30.36 1028 10 16 0.00 0.00
9:55 pm 21:55 Mostly Cloudy 26 -3.2 21 -6.3 79 79 E 10 17 30.33 1027 10 16 0.00 0.00
10:15 pm 22:15 Clear 26 -3.2 21 -6.2 80 80 E 9 15 30.33 1027 10 16 0.00 0.00
10:35 pm 22:35 Clear 26 -3.5 21 -6.3 81 81 E 8 13 30.33 1027 10 16 0.00 0.00
10:55 pm 22:55 Cloudy 26 -3.3 21 -6 82 82 E 12 19 30.30 1026 10 16 0.00 0.00
11:15 pm 23:15 Mostly Cloudy 26 -3.2 21 -6.1 81 81 E 6 9 30.30 1026 10 16 0.00 0.00
11:35 pm 23:35 Cloudy 27 -2.9 21 -6 79 79 ENE 3 6 30.30 1026 10 16 0.00 0.00
11:55 pm 23:55 Cloudy 27 -2.7 21 -6 78 78 ENE 6 9 30.27 1025 10 16 0.00 0.00

Powered by AerisWeather